Location: Chippewa Lake
(41.0698°N, 81.9010°W)
Time: 02:16:50
(UTC+00:00)

DELTA 2 R/B (1) - Pass Details

Date: 09 May 2021
Orbit: 790 x 802 km, 39.6° (Epoch: 24 June)

Event Time Altitude Azimuth Distance (km) Brightness Sun altitude
Rises 03:18:01 0° 279° (W) 3,286 7.4 -24.6°
Reaches altitude 10° 03:20:37 10° 272° (W) 2,354 6.4 -24.9°
Enters shadow 03:25:01 38° 224° (SW) 1,185 4.3 -25.3°
